DELTA 4 R/B, 41746

Orbit data source: Space-Track

DELTA 4 R/B, 41746 is space debris in GEO originally from a launch on Fri, 19 Aug 2016 UTC launched from the Air Force Eastern Test Range (AFETR). Debris objects in space refer to the collection of defunct objects orbiting the Earth. Examples of debris include non-operational satellites, rocket bodies, and fragments generated from explosions, collisions, or faulty payload assembly.

Loading next visibility...
Identifier
41746, 2016-052C
Orbit
GEO
Country
Flag of USUS
Related business
Flag of USUnited Launch Alliance/Lockheed Martin (US)
Manufacturer
ULA Decatur
Mission
Spacecraft
Bus & Motor
DCSS-4, RL10B-2
Mass
2,850 kg wet, 2,850 kg dry
Launch date (UTC)
2016-08-19 (10 years ago)
Launch vehicle
Unknown
Launch site
Air Force Eastern Test Range (AFETR)
Object type
Payload
Rocket body
Debris
Shape & HBR
Cyl + 1 Nozzle, 6.3 m
Radar Cross Section
43.982 m², Medium (>0.1 m² and < 1m²)

Expand to show TLE details & history
Last TLE update: 11 hours ago

TLE from 11 hours ago
0 DELTA 4 R/B
1 41746U 16052C   26254.44772574 -.00000021  00000-0  00000-0 0  9999
2 41746   8.9128  57.0745 0005238 339.4914  20.6320  0.98990710 26533
Epoch: 2026-09-11T10:44Z
TLE epoch observation values (Epoch: 2026-09-11T10:44:43.503Z)
Latitude
Longitude
-94.44484°
Altitude
36,128.32 km
Speed
3.063 km/s
True Right ascension
03h 48m 49s
True Declination
0° 00' 00"
Sunlit
Object was in daylight at epoch
Visualization orbit readout
Latitude
Unknown
Longitude
Unknown
Altitude
Unknown
Speed
Unknown
Apparent Right ascension
Unknown
Apparent Declination
Unknown
Sunlit
N/A
Visualization observer readout
Local Sidereal Time
13:42:20
Azimuth
Unknown
Elevation
Unknown
Doppler factor
Unknown
Orbital elements
Apogee altitude
36,172.895 km
Perigee altitude
36,128.342 km
Semi-major axis
42,528.756 km
Eccentricity
0.00052
Inclination
8.9128°
RAAN
57.0745°
Arg. of periapsis
339.4914°
True anomaly
20.65316°
Mean anomaly
20.632°
Eccentric anomaly
20.64258°
Mean motion
0.24747 °/min
Orbital period
1,454.73 mins
BSTAR
0
Loading maneuver chart data...
Computing Atmospheric mass density...
Loading historical data...
Loading historical data...
Loading historical data...
Loading historical data...
Loading historical data...
Loading historical data...
Loading historical data...
Other satellites on launch #52 in the year 2016 (2016-08-19 UTC)

Documentation

Showing up to 5 results
|